Regional Weather Roundup
Issued by NWS

Home | Current Version | Previous Version | Graphics & Text | Print | Product List | Glossary On
Versions: 1 2 3 4 5 6 7 8 9 10 11 12 13 14 15 16 17 18 19 20 21 22 23 24 25 26 27 28 29 30 31 32 33 34 35 36 37 38 39 40 41 42 43 44 45 46 47 48 49 50
119
ASUS43 KLOT 220008
RWRIL

ILLINOIS REGIONAL WEATHER ROUNDUP
NATIONAL WEATHER SERVICE CHICAGO/ROMEOVILLE IL
700 PM CDT SAT APR 21 2018

NOTE: "FAIR" INDICATES FEW OR NO CLOUDS BELOW 12,000 FEET WITH NO
SIGNIFICANT WEATHER AND/OR OBSTRUCTIONS TO VISIBILITY.

* THESE STATIONS ARE NOT UNDER NWS QUALITY CONTROL. THEY ALSO MAY NOT
  REPORT WEATHER SUCH AS PRECIPITATION OR FOG.

ILZ001-002-007-009-015-016-024-220100-
NORTHWEST ILLINOIS

CITY           SKY/WX    TMP DP  RH WIND       PRES   REMARKS
MOLINE         FAIR      57  32  38 E9        30.31R
6HR MIN TEMP:  57; 6HR MAX TEMP:  62;

STERLING*      FAIR      53  33  46 E13       30.32F
SAVANNA*       FAIR      53  36  51 NE8       30.33F
$$

ILZ003-004-008-010-011-017-018-220100-
NORTH CENTRAL ILLINOIS

CITY           SKY/WX    TMP DP  RH WIND       PRES   REMARKS
ROCKFORD       CLOUDY    54  31  41 E5        30.36S
6HR MIN TEMP:  52; 6HR MAX TEMP:  56; 6HR PCP: TRACE;

FREEPORT*      FAIR      51  35  55 E3        30.37R
ROCHELLE*      FAIR      53  34  48 E3        30.35R
DE KALB*       FAIR      53  32  45 SE6       30.35S
PERU*          MOCLDY    55  31  39 E12       30.32F
$$

ILZ005-006-012>014-019>023-220100-
NORTHEAST ILLINOIS

CITY           SKY/WX    TMP DP  RH WIND       PRES   REMARKS
CHICAGO-OHARE  CLOUDY    49  17  28 E9        30.36R
6HR MIN TEMP:  49; 6HR MAX TEMP:  55;

CHICAGO-MIDWAY MOCLDY    48  18  30 NE8       30.37S
6HR MIN TEMP:  48; 6HR MAX TEMP:  53;

AURORA         FAIR      53  28  38 E8        30.34S
6HR MIN TEMP:  53; 6HR MAX TEMP:  57; 6HR PCP: TRACE;

LANSING*       FAIR      46  28  51 NE7       30.36F
JOLIET*        FAIR      53  26  35 E10       30.35S
WAUKEGAN       CLOUDY    43  26  51 E6        30.36F
6HR MIN TEMP:  43; 6HR MAX TEMP:  54;

DUPAGE AIRPORT FAIR      51  20  29 E12       30.35R
6HR MIN TEMP:  51; 6HR MAX TEMP:  57; 6HR PCP: TRACE;

KANKAKEE*      FAIR      53  31  43 NE9       30.34S
WHEELING       MOCLDY    48  17  29 E6        30.39R
6HR MIN TEMP:  48; 6HR MAX TEMP:  54;

MORRIS*        FAIR      52  31  44 E6        30.34R
ROMEOVILLE*    FAIR      50  26  38 E8        30.35S
NORTHERLY ISL    N/A     43  20  40 NE1         N/A
$$

LMZ740>746-220100-
SOUTHERN LAKE MICHIGAN

STATION/POSITION SKY/WX   TEMP    WIND        PRES    VSBY  WAVE
                          AIR SEA DIR/SP/G                  HT/PER
                          (F)     (DEG/KT/KT) (MB)    (MI)  (FT/S)
HARRISON CRIB              41      60/  1/  2   N/A
BURNHAM HARBOR             42      10/  3/  5   N/A
CALUMET HARBOR             41      20/  4/  7 1027.7F
BURNS HARBOR               43      60/  8/ 10 1028.4F
MICHIGAN CITY              43      30/ 10/ 10   N/A
$$

ILZ025>027-034>036-040-047-049-050-058-095>099-220100-
WEST-CENTRAL ILLINOIS

CITY           SKY/WX    TMP DP  RH WIND       PRES   REMARKS
QUINCY         CLOUDY    60  27  28 E8        30.22F
GALESBURG*     FAIR      60  29  32 E12       30.29S
MACOMB*        MOCLDY    56  29  35 E15       30.30R
JACKSONVILLE*  MOCLDY    59  29  32 E9        30.24S
PITTSFIELD*    CLOUDY    61  30  30 E10       30.23F
$$

ILZ028>032-037-038-041>044-048-051>054-059>061-220100-
CENTRAL ILLINOIS

CITY           SKY/WX    TMP DP  RH WIND       PRES   REMARKS
PONTIAC        FAIR      54  33  45 E16       30.32S
BLOOMINGTON    FAIR      56  27  32 E17       30.28F
DECATUR        FAIR      57  29  34 E16       30.25F
PEORIA         FAIR      58  31  35 E15G22    30.27F
6HR MIN TEMP:  58; 6HR MAX TEMP:  63;

LACON*         FAIR      54  32  43 NE13      30.31R
LINCOLN*       FAIR      57  31  37 NE16      30.25F
SPRINGFIELD    FAIR      60  29  30 E12       30.26R
6HR MIN TEMP:  60; 6HR MAX TEMP:  66;

TAYLORVILLE    FAIR      60  30  31 E7        30.25R
6HR MIN TEMP:  60; 6HR MAX TEMP:  64;

$$

ILZ033-039-045-046-055>057-062-063-220100-
EAST-CENTRAL ILLINOIS

CITY           SKY/WX    TMP DP  RH WIND       PRES   REMARKS
CHAMPAIGN      FAIR      57  29  34 NE13      30.28S
DANVILLE*      FAIR      56  30  37 NE10      30.28R
RANTOUL*       FAIR      58  31  36 E13       30.30S
MATTOON        FAIR      57  30  35 E14       30.25S
PARIS*         FAIR      56  31  38 NE10      30.29S
$$

ILZ079-100>102-220100-
SOUTHWEST ILLINOIS

CITY           SKY/WX    TMP DP  RH WIND       PRES   REMARKS
ALTON          CLOUDY    61  36  39 E12       30.23R
BELLEVILLE     CLOUDY    63  37  38 E6        30.21R
CAHOKIA*       CLOUDY    63  33  32 E10       30.20R
SPARTA*        CLOUDY    62  42  48 E9        30.22R
$$

ILZ064>066-069>071-074>076-080>082-084>086-088>090-092>094-220100-
SOUTH-CENTRAL ILLINOIS

CITY           SKY/WX    TMP DP  RH WIND       PRES   REMARKS
CARBONDALE     FAIR      64  38  38 NE6       30.21R
6HR MIN TEMP:  64; 6HR MAX TEMP:  71;

CAIRO*         FAIR      67  40  37 NE6       30.17R
EFFINGHAM*     FAIR      61  34  36 NE7       30.25F
MARION         MOCLDY    64  32  29 E12       30.21R
MT. VERNON     FAIR      63  34  33 NE8       30.23R
CENTRALIA*     CLOUDY    64  35  34 E6        30.23R
SALEM*         FAIR      64  32  30 E8        30.22S
METROPOLIS*    FAIR      70  34  26 CALM      30.18R
$$

ILZ067-068-072-073-078-083-087-091-220100-
SOUTHEAST ILLINOIS

CITY           SKY/WX    TMP DP  RH WIND       PRES   REMARKS
LAWRENCEVILLE  FAIR      62  30  29 NE13      30.24R
FLORA*         FAIR      64  32  30 E7        30.24R
FAIRFIELD*     FAIR      63  35  35 NE5       30.22R
HARRISBURG*    FAIR      65  34  32 CALM      30.22R
ROBINSON*      FAIR      59  31  35 E9        30.27R
CARMI*         FAIR      63  36  36 NE5       30.21R
$$

ABBREVIATIONS USED IN REMARKS
   TC - TEMPERATURE IN CELSIUS
  WCI - WIND CHILL INDEX
   HX - HEAT INDEX
  VSB - VISIBILITY
$$





USA.gov is the U.S. government's official web portal to all federal, state and local government web resources and services.